Flag Weather past 2 weeks in Antananarivo, Madagascar

Now
66 °F

Passing clouds.


Feels Like: 66 °F
Forecast: 61 / 80 °F
Wind: 9 mph from Southeast

Location: Antananarivo / Ivato

Current Time: Nov 23, 2014 at 10:05:43 PM

Latest Report: Nov 23, 2014 at 9:30 PM


Visibility: N/A

Pressure: 30.24 "Hg

Humidity: 100%

Dew point: 66 °F

Location of AntananarivoLocation

Historic Weather in Antananarivo — Graph

°F

Antananarivo temperature yesterday

Maximum temperature yesterday: 84 °F (at 12:30 PM)
Minimum temperature yesterday: 63 °F (at 3:00 AM)
Average temperature yesterday: 72 °F

Past Weeks' High & Low Weather Summary

 TemperatureHumidityPressure
High90 °F (Nov 10, 2:00 PM)100% (Nov 8, 9:00 PM)30.27 "Hg (Nov 8, 9:00 PM)
Low57 °F (Nov 15, 4:30 AM)30% (Nov 17, 10:30 PM)29.98 "Hg (Nov 19, 3:00 PM)
Average71 °F83%30.15 "Hg
* Reported Nov 8 9:00 PM — Nov 23 9:00 PM, Antananarivo, Weather by CustomWeather, © 2014

Note: Actual official high and low records may vary slightly from our data, if they occured in-between our weather recording intervals... More about our weather records

Advertising

Antananarivo weather history for previous 24 hours

 ConditionsComfort  
Time TempWeatherWind HumidityBarometerVisibility
9:00 PM
Nov 23
66 °FPassing clouds.10 mph100%30.21 "HgN/A
8:30 PM66 °FThundershowers. Passing clouds.10 mph100%30.21 "HgN/A
8:00 PM68 °FThundershowers. Passing clouds.7 mph94%30.21 "HgN/A
7:30 PM68 °FThundershowers. Passing clouds.8 mph94%30.21 "HgN/A
7:00 PM68 °FPassing clouds.7 mph88%30.21 "HgN/A
6:30 PM70 °FPassing clouds.16 mph83%30.18 "HgN/A
6:00 PM70 °FScattered clouds.15 mph88%30.15 "HgN/A
5:30 PM72 °FScattered clouds.15 mph83%30.15 "HgN/A
5:00 PM75 °FScattered clouds.15 mph78%30.15 "HgN/A
4:30 PM77 °FScattered clouds.16 mph74%30.15 "HgN/A
4:00 PM81 °FScattered clouds.14 mph70%30.12 "HgN/A
3:30 PM81 °FPartly sunny.12 mph62%30.12 "HgN/A
3:00 PM81 °FPartly sunny.12 mph66%30.12 "HgN/A
2:30 PM79 °FPartly sunny.9 mph70%30.15 "HgN/A
2:00 PM81 °FPartly sunny.9 mph62%30.15 "HgN/A
1:30 PM82 °FPartly sunny.12 mph66%30.15 "HgN/A
1:00 PM82 °FPartly sunny.9 mph66%30.18 "HgN/A
12:30 PM81 °FPartly sunny.14 mph66%30.18 "HgN/A
12:00 PM79 °FPartly sunny.12 mph70%30.21 "HgN/A
11:30 AM79 °FPartly sunny.12 mph74%30.21 "HgN/A
11:00 AM77 °FPartly sunny.12 mph74%30.21 "HgN/A
10:30 AM73 °FPartly sunny.10 mph83%30.21 "HgN/A
10:00 AM73 °FPartly sunny.10 mph78%30.21 "HgN/A
9:30 AM72 °FPartly sunny.13 mph83%30.24 "HgN/A
9:00 AM72 °FPartly sunny.9 mph94%30.24 "HgN/A
8:30 AM70 °FBroken clouds.8 mph94%30.24 "HgN/A
8:00 AM68 °FBroken clouds.8 mph100%30.24 "HgN/A
7:30 AM66 °FBroken clouds.12 mph100%30.24 "HgN/A
7:00 AM64 °FBroken clouds.10 mph100%30.21 "HgN/A
6:30 AM66 °FBroken clouds.10 mph100%30.21 "HgN/A
6:00 AM64 °FPartly sunny.7 mph100%30.21 "HgN/A
5:30 AM63 °FPartly sunny.7 mph100%30.21 "HgN/A
5:00 AM63 °FPassing clouds.6 mph100%30.18 "HgN/A
4:30 AM63 °FPassing clouds.7 mph100%30.18 "HgN/A
4:00 AM63 °FPassing clouds.5 mph100%30.18 "HgN/A
3:00 AM63 °FPartly cloudy.3 mph100%30.18 "HgN/A
2:30 AM63 °FPartly cloudy.6 mph100%30.18 "HgN/A
2:00 AM63 °FPartly cloudy.8 mph100%30.18 "HgN/A
1:30 AM63 °FPartly cloudy.7 mph100%30.18 "HgN/A
1:00 AM64 °FPartly cloudy.5 mph100%30.18 "HgN/A
12:30 AM64 °FPartly cloudy.8 mph100%30.21 "HgN/A
12:00 AM64 °FPartly cloudy.7 mph100%30.21 "HgN/A
11:30 PM
Nov 22
64 °FPartly cloudy.7 mph100%30.24 "HgN/A
11:00 PM64 °FLight rain. Partly cloudy.7 mph100%30.24 "HgN/A
10:30 PM64 °FLight rain. Partly cloudy.5 mph100%30.24 "Hg4 mi
10:00 PM64 °FLight rain. Passing clouds.3 mph100%30.27 "Hg4 mi
Weather by CustomWeather, © 2014

See weather overviewHow to use our weather pages